Regional Weather Roundup
Issued by NWS

Home | Current Version | Previous Version | Text Only | Print | Product List | Glossary Off
Versions: 1 2 3 4 5 6 7 8 9 10 11 12 13 14 15 16 17 18 19 20 21 22 23 24 25 26 27 28 29 30 31 32 33 34 35 36 37 38 39 40 41 42 43 44 45 46 47 48 49 50

000
ASUS43 KFSD 260710
RWRSD

WEATHER ROUNDUP FOR SOUTH DAKOTA
NATIONAL WEATHER SERVICE SIOUX FALLS SD
200 AM CDT MON SEP 26 2016

NOTE: "FAIR" INDICATES FEW OR NO CLOUDS BELOW 12,000 FEET WITH NO
SIGNIFICANT WEATHER AND/OR OBSTRUCTIONS TO VISIBILITY.


SDZ001>005-009-010-012>017-260800-
NORTHWEST AND NORTH CENTRAL SOUTH DAKOTA

CITY           SKY/WX    TMP DP  RH WIND       PRES   REMARKS
BUFFALO          N/A     45  37  73 W9        30.20F
FAITH            N/A     46  38  73 W7        30.25S
MOBRIDGE       CLEAR     48  36  63 NW7       30.17S
$$

SDZ012>016-024>037-041>051-057-063-072>074-260800-
SOUTHWEST AND SOUTH CENTRAL SOUTH DAKOTA

CITY           SKY/WX    TMP DP  RH WIND       PRES   REMARKS
RAPID CTY ARPT CLEAR     42  34  73 NW9       30.32S
PIERRE         CLEAR     49  35  58 W8        30.22S
CUSTER         CLEAR     43  30  60 W3        30.37F
ELLSWORTH AFB  CLEAR     42  34  73 NW9       30.30F
PHILIP         CLEAR     43  35  73 W10       30.28S
PINE RIDGE     CLEAR     33  29  85 CALM      30.34S
WINNER         FAIR      49  34  56 SW7       30.26S
$$

SDZ004>011-016>023-039-040-260800-
NORTHEAST SOUTH DAKOTA

CITY           SKY/WX    TMP DP  RH WIND       PRES   REMARKS
ABERDEEN       CLEAR     44  35  70 W9        30.14S
WATERTOWN      CLEAR     51  36  56 W13G23    30.10S
BROOKINGS      CLEAR     47  37  68 W10       30.13S
SISSETON         N/A     52  36  54 NW15      30.04S
$$

SDZ017-020-022-023-036>040-048>070-260800-
SOUTHEAST SOUTH DAKOTA

CITY           SKY/WX    TMP DP  RH WIND       PRES   REMARKS
SIOUX FALLS    CLEAR     47  37  68 W7        30.16S
HURON          CLEAR     46  33  60 W10       30.17S
CHAMBERLAIN    CLEAR     49  37  63 NW9       30.23S
MITCHELL       CLEAR     49  33  54 W9        30.20S
YANKTON        CLEAR     52  34  50 W14       30.20S
$$

ABBREVIATIONS USED IN REMARKS
   TC - TEMPERATURE IN CELSIUS
  WCI - WIND CHILL INDEX
   HX - HEAT INDEX
  VSB - VISIBILITY





USA.gov is the U.S. government's official web portal to all federal, state and local government web resources and services.